Regional Weather Roundup
Issued by NWS Wakefield, VA

Home | Current Version | Previous Version | Graphics & Text | Print | Product List | Glossary On
Versions: 1 2 3 4 5 6 7 8 9 10 11 12 13 14 15 16 17 18 19 20 21 22 23 24 25 26 27
000
ASUS41 KAKQ 280915
RWRAKQ

REGIONAL WEATHER ROUNDUP
NATIONAL WEATHER SERVICE WAKEFIELD VA
500 AM EDT WED SEP 28 2016

Note: "fair" indicates few or no clouds below 12,000 feet with no
significant weather and/or obstructions to visibility. * = Denotes
station may not report precipitation (e.g., rain,snow,etc.),
thunder or fog.

VAZ042-051-052>054-056-281000-
NORTHERN VIRGINIA

CITY           SKY/WX    TMP DP  RH WIND       PRES   REMARKS
WASH NATIONAL  CLOUDY    65  64  97 N6        29.96S
DULLES         LGT RAIN  64  62  93 E9        29.95F
FORT BELVOIR   DRIZZLE   65  64  96 N2        29.94S
QUANTICO       TSTM      67  65  93 E13       29.95R FOG
FREDERICKSBRG* CLOUDY    67  67 100 CALM      29.92R FOG
STAFFORD*      CLOUDY    66  66 100 NE5       29.97R
WARRENTON      DRZL/FOG  65  61  87 E3        29.93S VSB 1
CULPEPER*      DRIZZLE   65  65 100 N5        29.94S
MANASSAS*      CLOUDY    64  64 100 CALM      29.94S
LEESBURG*      LGT RAIN  63  63 100 NE5       29.97S
WINCHESTER     CLOUDY    61  55  82 N3        29.95F
FRONT ROYAL*   CLOUDY    57  57 100 CALM      29.94S
LURAY*         PTSUNNY  N/A N/A N/A NE5       29.94S
$$

VAZ048-049-060>072-079>083-281000-
CENTRAL AND SOUTH CENTRAL VIRGINIA

CITY           SKY/WX    TMP DP  RH WIND       PRES   REMARKS
RICHMOND       LGT RAIN  68  67  96 SE7       29.91F FOG
CHESTERFIELD*  CLOUDY    70  55  60 SE6       29.92F VSB 1/4
PETERSBURG*    CLOUDY   N/A N/A N/A CALM      29.92F FOG
HANOVER        CLOUDY    67  66  97 SE5       29.93S FOG
TAPPAHANNOCK*  CLOUDY    69  69 100 CALM      29.93F FOG
QUINTON*       CLOUDY    68  68 100 SE6       29.91S FOG
CHARLOTTSVILLE CLOUDY    67  64  90 NE6       29.93S
GORDONSVILLE*  NOT AVBL
ORANGE*          N/A     64  64 100 CALM      29.95R
LOUISA*        CLOUDY    72  70  94 CALM      29.91S FOG
BUMPASS*       CLOUDY    67  67 100 E5        29.91F VSB 1/2
FARMVILLE*     CLOUDY    70  69  98 CALM      29.91R FOG
CREWE*         CLOUDY    68  68 100 CALM      29.92R VSB 1/4
FORT PICKETT*  CLOUDY    68  64  87 S5        29.92S VSB 3/4
CHASE CITY*    CLOUDY    69  67  94 CALM      29.91R
CLARKSVILLE*   PTSUNNY   68  68 100 CALM      29.90S
SOUTH HILL*    CLOUDY    68  68 100 S5        29.97S
LAWRENCEVILLE* CLOUDY    68  67  97 CALM      29.92R VSB 3/4
EMPORIA*       CLOUDY    68  68 100 CALM      29.93S
$$

VAZ088>098-281000-
SOUTHEAST VIRGINIA

CITY           SKY/WX    TMP DP  RH WIND       PRES   REMARKS
NORFOLK        MOCLDY    69  68  96 CALM      29.92S
VIRGINIA BEACH PTCLDY    65  64  97 CALM      29.93R
NORFOLK NAVAL  MOCLDY    69  67  93 CALM      29.94S
WEST POINT*    MOCLDY    65  65  99 CALM      29.94R
SALUDA*        CLOUDY    66  66 100 CALM      29.93R
NEWPORT NEWS   MOCLDY    68  67  96 CALM      29.93S FOG
LANGLEY AFB    CLEAR     68  66  94 CALM      29.92S FOG
FORT EUSTIS    CLOUDY    69  67  95 E2        29.90S
WILLIAMSBURG*  CLOUDY    70  70 100 SE3       29.93S
HR EXEC AP*    FAIR      64  63  94 CALM      29.94F
FRANKLIN*      PTCLDY    66  65  97 CALM      29.93S
US460-WAKEFLD  CLOUDY    68  66  93 CALM      29.92F
$$

VAZ020-022-025-037-045-281000-
WEST CENTRAL AND SOUTHWEST VIRGINIA

CITY           SKY/WX    TMP DP  RH WIND       PRES   REMARKS
STAUNTON*      CLOUDY    59  55  89 CALM      29.96S
WAYNESBORO*    CLOUDY    60  57  88 CALM      29.95S
HOT SPRINGS VA CLEAR     57  33  39 CALM      30.00S
LYNCHBURG      CLOUDY    66  66 100 CALM      29.93R
DANVILLE       LGT RAIN  66  65  96 CALM      29.92R
SOUTH BOSTON*  CLOUDY    69  67  95 CALM      29.92R
MARTINSVILLE   CLOUDY    65  65  97 CALM      29.95R FOG
ROANOKE        CLOUDY    62  57  83 W5        29.95S
BLACKSBURG     PTCLDY    50  49  99 CALM      30.00S
DUBLIN*        FOG       52  52 100 CALM      29.99S VSB 1/2
MARION*        FOG       50  49  96 CALM      30.01S VSB 1
HILLSVILLE*    PTCLDY    58  58  99 CALM      29.97F
RICHLANDS*     FAIR      52  47  83 CALM      29.98S
WISE*          PTCLDY    54  34  47 CALM      30.00R
ABINGDON*      CLEAR     56  55  99 CALM      29.96S
$$

MDZ021>025-VAZ099-100-281000-
SOUTHERN MARYLAND AND THE DELMARVA PENINSULA

CITY           SKY/WX    TMP DP  RH WIND       PRES   REMARKS
PATUXENT RIVER CLOUDY    67  65  93 E8        29.93F
BAY BRIDGE APT FOG       64  64 100 MISG      29.97R VSB 1/2
LEONARDTOWN    CLOUDY    64  64 100 E3        29.95F
DOVER          CLEAR     57  57 100 N6        29.97S
GEORGETOWN     CLOUDY    66  64  93 CALM      29.97S
EASTON         NOT AVBL
CAMBRIDGE      PTCLDY    63  61  94 NE6       29.94F
SALISBURY      CLOUDY    67  66  97 NE7       29.95S FOG
OCEAN CITY     CLOUDY   N/A N/A N/A NE7       29.95R
WALLOPS ISLAND PTCLDY    68  67  96 N3        29.94F
ACCOMACK*      FOG       67  65  93 NE5       29.93S VSB 1/4
$$

NCZ012>017-030>032-281000-
NORTH CENTRAL AND EASTERN NORTH CAROLINA

CITY           SKY/WX    TMP DP  RH WIND       PRES   REMARKS
ROANOKE RAPIDS FAIR      68  68 100 S3        29.91F FOG
RALEIGH        CLOUDY    70  69  97 CALM      29.91S
ELIZABETH CITY CLEAR     65  64  97 CALM      29.93S
AHOSKIE*       PTCLDY    67  66  97 CALM      29.93R
EDENTON*       CLEAR     67  67 100 CALM      29.93S
CURRITUCK*     NOT AVBL
KILL DEVIL HLS PTCLDY    71  71 100 CALM      29.91R
MANTEO         NOT AVBL
CAPE HATTERAS  PTCLDY    74  71  91 CALM      29.91R
TARBORO*       PTSUNNY   69  69  99 CALM      29.93S FOG
GOLDSBORO      MOCLDY    70  70 100 SE6       29.90S
WASHINGTON     CLOUDY    66  66  98 CALM      29.93S
GREENVILLE     CLOUDY    70  70 100 CALM      29.95S
NEW BERN       CLOUDY    69  68  96 CALM      29.94S FOG
WILMINGTON     CLEAR     68  67  96 CALM      29.92S
$$

VAZ048-281000-
ELSEWHERE

CITY           SKY/WX    TMP DP  RH WIND       PRES   REMARKS
HARRISBURG PA  MOCLDY    56  55  97 CALM      30.00S
BALTIMORE      FOG       63  62  97 NE7       29.96S VSB 1/4
ANNAPOLIS      CLOUDY    67  65  93 E7        29.96S
ANDREWS AFB    CLOUDY    64  63  97 NE7       29.94S
PHILADELPHIA   PTCLDY    59  57  93 NE3       30.01S
HENDERSON NC   CLOUDY    67  66  97 CALM      29.91S FOG
GREENSBORO     PTCLDY    67  67 100 CALM      29.91S
ROCKY MOUNT    PTCLDY    70  70 100 CALM      29.91F
$$

VAZ100-281000-
MARINE

STATION/POSITION TIME  TEMP    WIND        PRES    WAVE   SWELL
                       AIR SEA DIR/SP/G            HT/PER HT/PER
                 (UTC) (F)     (DEG/KT/KT) (MB)    (FT/S) (FT/S)
BRANDYWINE LGT   0848   69      50/ 12/ 13   N/A
CAPE MAY NJ      0848   65 72   40/  2/  4 1014.5R
LEWES DE         0848   70 72   50/ 13/ 14 1014.4F
OCEAN-CITY-INLET 0848   71 72   60/  4/  8 1014.4S
WACHAPREAGUE VA  0848   69 73   30/  3/  3 1013.4F
THOMAS POINT MD  0900   66 74   50/  9/ 10 1015.5F
GOOSES REEF MD   0850   69     100/ 12/ 14 1014.1F
COVE POINT MD    0848   67     110/  9/ 12 1014.5F
SOLOMONS ISLAND  0842   69 75   70/  9/ 12   N/A
BISHOPS HEAD MD  0848   68 71   50/  8/ 10 1014.0F
PINEY POINT MD   0848           80/  6/  7   N/A
POTOMAC MD       0850   71      70/ 12/ 14 1012.4F
CAMBRIDGE MD     0848   66 73   60/  7/  8 1013.3F
LEWISETTA VA     0848   72 74   80/ 13/ 16 1012.9F
RAPPAHANNOCK LGT 0848           60/  4/  5 1013.8F
STINGRAY PT      0850   74     180/  2/  4 1013.7S
YORK RVR RNG VA  0848   73     170/  4/  4 1012.7F
YORKTOWN VA      0848   71 76  230/  2/  2 1013.0R
JAMESTOWN VA     0850   72     140/  6/  8   N/A
DOMINION TERM VA 0848   72     200/  3/  4 1013.3R
KIPTOPEKE VA     0848      75   80/  2/  2   N/A
CHES BAY BRIDGE  0848   73 75  230/  4/  5 1013.1S
CAPE HENRY VA    0848   71     280/  5/  5   N/A
WILLOUBY STN VA  0848   72     360/  2/  3   N/A
CAPE HENRY BUOY  0842      75                N/A     4/ 7   2/11
1ST LANDING BUOY 0850   73     300/  4/  6 1013.2R
CAPE CHARLES BUO 0826      76                N/A     3/12   2/12
OFFSHORE WE BUOY 0821      75                N/A     4/ 7   2/12
64NM E OF VA BCH 0850   74 74  360/  8/ 10 1012.3F   5/ 7   5/ 7
DUCK PIER NC     0848   74 76  310/  3/  4 1012.7R
44056 DUCK FRF   0841      76                N/A     4/ 7   2/11
OREGON INLET NC  0848   73 76  320/  4/  5 1012.6S
HATTERAS NC      0848   75 77  330/  7/  8 1012.4R
DIAMOND SHLS NC  0850   77 84  350/ 10/ 12 1012.0F   5/ 7   5/ 7
CAPE LOOKOUT NC  0800   74     350/  4/  5 1012.9F
$$




USA.gov is the U.S. government's official web portal to all federal, state and local government web resources and services.